Weather History for Meeker, CO

Change the Weather History Date:

Friday, October 5, 2012

  Actual Average Record
Temperature  
Mean Temperature 46 °F 49 °F  
Max Temperature 63 °F 66 °F 77 °F (1997)
Min Temperature 29 °F 32 °F 23 °F (2001)
Degree Days  
Heating Degree Days 19 16  
Month to date heating degree days 70 77  
Since 1 July heating degree days 290 384  
Cooling Degree Days 0 0  
Month to date cooling degree days 0 0  
Year to date cooling degree days 325 172  
Moisture  
Dew Point 14 °F    
Average Humidity 35    
Maximum Humidity 58    
Minimum Humidity 11    
Precipitation  
Precipitation 0.00 in 0.06 in 0.34 in (2008)
Month to date precipitation 0.00 0.33  
Year to date precipitation 6.45 11.95  
Sea Level Pressure  
Sea Level Pressure 30.01 in    
Wind  
Wind Speed 5 mph (NW)    
Max Wind Speed 18 mph    
Max Gust Speed 25 mph    
Visibility 10 miles    
Events      
T = Trace of Precipitation, MM = Missing Value Source: NWS Daily Summary

Daily Weather History Graph

Daily Weather History Graph

Search for Another Location

Airport:

Trip Planner

Search our weather history database for the weather conditions in past years. The results will help you decide how hot, cold, wet, or windy it might be!

Date:

Astronomy

Oct. 05, 2012 Rise Set
Actual Time 7:12 AM MDT 6:46 PM MDT
Civil Twilight 6:45 AM MDT 7:13 PM MDT
Nautical Twilight 6:13 AM MDT 7:44 PM MDT
Astronomical Twilight 5:42 AM MDT 8:16 PM MDT
Moon 10:12 PM MDT (10/5) 12:22 PM MDT (10/5)
Length of Visible Light 12h 28m
Length of Day
11h 34m
Waning Gibbous, 73% of the Moon is Illuminated
Oct 5
Waning Gibbous
Oct 8
Last Quarter
Oct 15
New
Oct 21
First Quarter
Oct 29
Full

Hourly Weather History & Observations

Time (MDT) Temp. Windchill Dew Point Humidity Pressure Visibility Wind Dir Wind Speed Gust Speed Precip Events Conditions
12:53 AM 43.0 °F - 19.0 °F 38% 29.90 in 10.0 mi Calm Calm - N/A   Mostly Cloudy
1:53 AM 42.1 °F - 21.9 °F 45% 29.88 in 10.0 mi Calm Calm - N/A   Overcast
2:53 AM 44.1 °F 41.5 °F 23.0 °F 43% 29.86 in 10.0 mi SE 4.6 mph - N/A   Overcast
3:53 AM 42.1 °F 39.2 °F 21.9 °F 45% 29.89 in 10.0 mi North 4.6 mph - N/A   Partly Cloudy
4:53 AM 37.0 °F - 19.0 °F 48% 29.93 in 10.0 mi Calm Calm - N/A   Clear
5:53 AM 35.1 °F - 16.0 °F 46% 29.97 in 10.0 mi Calm Calm - N/A   Clear
6:53 AM 30.9 °F 27.5 °F 18.0 °F 59% 30.05 in 10.0 mi NE 3.5 mph - N/A   Clear
7:53 AM 33.1 °F - 18.0 °F 54% 30.11 in 10.0 mi Calm Calm - N/A   Clear
8:53 AM 39.9 °F - 18.0 °F 41% 30.13 in 10.0 mi Calm Calm - N/A   Clear
9:53 AM 46.0 °F - 17.1 °F 31% 30.11 in 10.0 mi Calm Calm - N/A   Clear
11:00 AM 50.0 °F - 15.8 °F 26% 30.20 in 9.0 mi SW 6.9 mph - N/A   Partly Cloudy
11:53 AM 53.1 °F - 12.0 °F 20% 30.07 in 8.0 mi West 8.1 mph - N/A   Partly Cloudy
12:53 PM 55.9 °F - 12.0 °F 18% 30.04 in 10.0 mi Variable 6.9 mph - N/A   Clear
1:53 PM 57.9 °F - 8.1 °F 14% 30.02 in 10.0 mi WNW 12.7 mph - N/A   Clear
2:53 PM 59.0 °F - 8.1 °F 13% 29.97 in 10.0 mi West 13.8 mph 17.3 mph N/A   Clear
3:53 PM 62.1 °F - 9.0 °F 12% 29.94 in 10.0 mi WNW 11.5 mph 21.9 mph N/A   Clear
4:53 PM 61.0 °F - 7.0 °F 12% 29.96 in 10.0 mi NW 13.8 mph 21.9 mph N/A   Clear
5:53 PM 59.0 °F - 6.1 °F 12% 29.97 in 10.0 mi North 9.2 mph - N/A   Clear
6:53 PM 52.0 °F - 12.0 °F 20% 30.01 in 10.0 mi NNE 13.8 mph - N/A   Clear
7:53 PM 48.9 °F - 10.0 °F 21% 30.03 in 10.0 mi ESE 6.9 mph - N/A   Clear
8:53 PM 45.0 °F - 15.1 °F 30% 30.02 in 10.0 mi Calm Calm - N/A   Clear
9:53 PM 37.9 °F 35.5 °F 12.9 °F 36% 30.04 in 10.0 mi SW 3.5 mph - N/A   Clear
10:53 PM 36.0 °F - 10.9 °F 36% 30.04 in 10.0 mi Calm Calm - N/A   Clear
11:53 PM 33.1 °F - 12.9 °F 43% 30.06 in 10.0 mi Calm Calm - N/A   Clear